This is the latest recevied weather packets stored in our database for station/object WW5JC. If no packets are shown the sender has not sent any weather packets the latest 10 day(s).
| Time | Temp. | Humidity | Pressure | Rain* | Wind** | Luminosity | Snow |
|---|---|---|---|---|---|---|---|
| 1778002483 | 25° C | 81% | 1006.3 hPa | 0 mm | - | 455 W/m² | - |
| 1778002181 | 25° C | 83% | 1006.2 hPa | 0 mm | - | 437 W/m² | - |
| 1778001879 | 24.44° C | 84% | 1006.3 hPa | 0 mm | - | 327 W/m² | - |
| 1778001578 | 24.44° C | 83% | 1007.1 hPa | 0 mm | - | 285 W/m² | - |
| 1778001275 | 24.44° C | 83% | 1007.5 hPa | 0 mm | - | 263 W/m² | - |
| 1778000972 | 24.44° C | 83% | 1007.6 hPa | 0 mm | - | 220 W/m² | - |
| 1778000668 | 24.44° C | 83% | 1007.3 hPa | 0 mm | - | 265 W/m² | - |
| 1778000364 | 24.44° C | 82% | 1007.3 hPa | 0 mm | - | 287 W/m² | - |
| 1778000060 | 24.44° C | 82% | 1007.1 hPa | 0 mm | - | 286 W/m² | - |
| 1777999755 | 24.44° C | 82% | 1007.1 hPa | 0 mm | - | 312 W/m² | - |
| 1777999453 | 23.89° C | 84% | 1006.9 hPa | 0 mm | - | 292 W/m² | - |
| 1777999151 | 23.89° C | 85% | 1007.1 hPa | 0 mm | - | 225 W/m² | - |
| 1777998849 | 23.89° C | 85% | 1006.8 hPa | 0 mm | - | 184 W/m² | - |
| 1777998548 | 23.89° C | 84% | 1007.1 hPa | 0 mm | - | 191 W/m² | - |
| 1777998243 | 23.89° C | 85% | 1006.9 hPa | 0 mm | - | 238 W/m² | - |
| 1777997940 | 23.89° C | 85% | 1006.7 hPa | 0 mm | - | 232 W/m² | - |
| 1777997637 | 23.33° C | 85% | 1007 hPa | 0 mm | - | 198 W/m² | - |
| 1777997334 | 23.33° C | 85% | 1006.9 hPa | 0 mm | - | 189 W/m² | - |
| 1777997033 | 23.33° C | 86% | 1006.8 hPa | 0 mm | - | 154 W/m² | - |
| 1777996729 | 23.33° C | 86% | 1006.8 hPa | 0 mm | - | 178 W/m² | - |
| 1777996425 | 23.33° C | 86% | 1007 hPa | 0 mm | - | 192 W/m² | - |
| 1777996122 | 23.33° C | 86% | 1006.9 hPa | 0 mm | - | 213 W/m² | - |
| 1777995818 | 23.33° C | 86% | 1006.9 hPa | 0 mm | - | 187 W/m² | - |
| 1777995514 | 22.78° C | 87% | 1006.9 hPa | 0 mm | - | 226 W/m² | - |
| 1777995211 | 22.78° C | 87% | 1006.9 hPa | 0 mm | - | 168 W/m² | - |
* Rain latest hour (hover to see other rain measurements)
** Current wind speed in m/s (hover to see current wind gust speed)